EHI
8 20 37 43 40 39 42 47 54 61 65 67 68 67 63 58 52 43 32 21 12 9 7 5 4 2 2 2 2 1 1 2 2 1 0 0 0 0 0 0 0 0 0
16 27 42 49 48 46 47 47 49 55 60 62 63 62 59 55 52 45 33 21 13 8 6 5 3 2 1 1 1 0 0 1 1 1 0 0 0 0 0 0 0 0 0
30 36 48 57 58 55 51 48 47 50 53 54 53 52 50 48 47 41 30 19 12 6 4 3 2 1 0 0 0 0 0 0 0 1 0 0 0 0 0 0 0 0 0
39 42 50 60 64 61 54 50 49 48 49 49 46 42 40 39 37 32 24 16 10 6 4 3 2 1 0 0 0 0 0 0 0 0 0 0 0 0 0 0 0 0 0
41 44 52 62 68 67 60 53 50 48 48 46 41 36 33 31 28 24 19 14 9 6 4 4 2 1 0 0 1 0 0 0 0 0 0 0 0 0 0 0 0 0 0
38 42 52 64 71 71 64 54 49 48 47 43 36 30 28 26 23 19 15 11 7 5 4 3 3 1 1 1 1 0 1 1 0 0 0 0 0 0 0 0 1 1 0
38 41 51 64 71 69 62 55 50 48 45 41 34 29 26 23 19 16 12 9 6 5 4 3 3 3 2 2 1 1 2 2 1 0 0 0 0 1 0 0 1 2 1
40 42 49 59 65 64 59 55 51 47 44 40 36 31 26 20 15 12 10 8 6 6 5 4 4 4 3 2 1 1 2 2 1 0 0 0 1 1 1 1 2 2 3
39 42 44 48 53 56 55 52 49 45 43 42 39 33 25 17 12 9 7 6 6 6 6 5 5 5 4 4 2 2 2 1 0 0 0 1 2 3 3 2 2 2 4
36 36 37 39 43 47 48 46 45 44 42 41 38 33 24 16 11 8 6 5 4 4 4 5 5 4 5 5 3 2 1 0 0 0 0 1 2 3 4 2 1 2 3
31 31 33 35 38 42 44 42 42 42 39 36 33 29 22 15 11 8 6 5 4 3 4 4 4 4 3 3 3 1 0 0 0 0 0 0 1 2 2 1 1 1 1
27 28 31 33 36 41 41 38 36 36 35 32 28 25 21 14 9 7 6 4 3 3 4 5 6 5 2 1 1 1 0 0 0 0 0 1 2 1 0 1 2 2 1
24 27 29 31 34 37 37 35 32 30 30 28 25 23 19 13 8 7 6 5 4 3 5 7 8 6 3 1 1 0 0 0 0 0 0 2 3 1 0 1 2 3 3
22 25 29 30 30 30 32 32 30 28 26 24 22 19 16 11 7 6 6 6 4 4 6 7 7 5 2 1 0 0 0 0 0 0 0 1 2 1 0 1 2 3 4
20 22 26 27 26 26 27 28 28 26 24 22 18 14 12 8 4 4 4 4 4 4 5 6 4 3 2 0 0 0 0 0 0 0 0 0 0 0 0 1 2 3 3
17 20 23 23 22 22 24 24 24 23 22 19 14 10 8 5 3 2 1 1 1 2 3 3 2 1 1 0 0 0 0 0 0 0 0 0 0 0 1 1 2 3 3
19 19 20 21 20 19 20 21 21 20 17 13 9 8 7 5 2 0 0 0 0 0 1 1 0 1 1 1 0 0 0 0 0 0 0 0 0 1 1 1 2 3 3
23 20 19 21 20 17 17 20 20 17 13 9 6 6 7 5 1 0 0 0 0 0 0 0 0 1 1 1 0 0 0 0 0 0 0 0 0 0 0 0 1 2 3
24 20 18 20 19 17 17 19 18 14 10 6 4 5 6 6 2 0 0 0 0 0 0 0 0 0 0 0 0 0 0 0 0 0 0 0 0 0 0 0 0 1 2
20 17 16 17 17 16 17 17 16 12 7 4 3 4 5 6 4 1 0 0 0 0 0 0 0 0 0 0 0 0 0 0 0 0 0 0 0 0 0 0 0 0 1
17 16 15 16 16 17 17 16 15 12 6 4 3 4 5 5 4 1 0 0 0 0 0 0 0 0 0 0 0 0 0 0 0 0 0 0 0 0 1 1 0 0 0
17 18 18 17 18 18 16 15 13 9 6 5 4 4 5 5 3 1 0 1 0 0 0 1 0 0 0 0 0 0 0 0 0 0 0 0 0 0 1 1 0 0 0
16 18 19 19 19 18 15 12 10 7 5 5 5 5 5 5 3 1 0 0 0 0 0 0 0 0 0 0 0 0 0 0 0 0 0 0 0 0 1 1 0 0 0
14 16 18 19 20 18 15 13 10 7 6 5 5 4 4 4 3 1 0 0 0 0 0 0 0 1 1 0 0 0 0 0 0 0 0 0 0 0 0 0 0 0 0
11 12 15 17 19 18 17 13 10 8 7 6 6 5 4 2 2 1 0 0 0 0 0 0 1 2 2 1 0 0 0 0 0 0 0 0 0 0 0 0 0 0 0
8 10 14 16 17 18 17 13 10 8 7 6 6 6 4 2 1 1 1 0 0 0 0 1 2 3 3 2 1 0 0 0 0 0 0 0 0 0 0 0 0 0 0
Wind_Speed
7 9 16 16 16 16 16 16 16 16 16 16 16 16 16 16 16 15 14 13 12 11 10 9 9 8 8 8 9 9 9 9 9 9 9 9 9 9 9 10 10 8 11
11 11 16 16 17 17 16 16 16 16 16 16 15 15 15 15 14 14 13 12 11 11 10 9 9 8 8 8 8 9 9 8 8 8 8 8 8 8 9 9 9 6 10
13 12 14 16 17 17 17 16 16 15 15 15 15 14 14 14 13 13 12 11 11 10 10 9 8 8 8 8 8 8 8 7 7 7 6 3 5 8 9 9 9 9 10
13 10 12 16 17 17 16 16 16 15 15 14 14 14 13 13 12 11 11 10 10 9 9 9 8 8 7 7 7 7 6 6 6 6 3 3 3 7 8 9 10 10 10
10 9 12 18 17 17 16 16 15 15 14 14 13 13 12 11 11 10 10 10 9 9 8 8 8 7 7 6 6 5 5 5 5 4 3 3 3 6 9 9 10 10 10
9 7 10 17 17 16 16 15 15 14 14 13 13 12 11 10 10 9 9 9 9 8 8 8 7 7 6 5 5 4 4 4 4 3 3 3 4 7 9 10 11 11 10
10 7 9 15 15 16 15 15 14 14 13 13 12 11 11 10 9 9 8 8 8 8 7 7 7 6 5 5 4 3 4 4 3 3 3 4 5 8 10 10 11 11 11
10 8 8 14 15 15 15 14 14 13 13 12 11 11 10 9 9 8 8 7 7 7 7 7 6 5 5 4 4 4 4 4 3 3 4 4 6 9 10 11 11 11 11
8 8 7 8 10 14 14 14 13 13 12 11 11 10 10 9 9 8 7 7 7 6 6 6 6 5 5 5 4 4 4 4 2 2 3 3 6 8 10 11 11 11 12
6 6 6 6 6 6 8 13 13 12 12 11 11 10 10 9 8 8 7 7 7 7 6 6 6 5 5 5 4 5 5 3 2 2 2 4 8 9 10 10 12 12 12
6 6 6 6 5 5 6 9 10 11 11 10 9 10 8 4 4 4 6 7 7 7 7 7 6 6 5 4 4 5 4 2 2 2 3 6 9 10 10 10 11 12 13
9 8 6 6 6 6 6 5 4 4 4 4 3 4 3 2 2 3 4 6 7 7 7 7 7 6 4 2 3 4 2 3 3 3 4 8 9 10 10 11 11 13 13
8 7 6 5 5 5 3 3 2 2 3 3 4 3 2 2 2 2 1 2 3 4 3 3 3 2 2 2 2 2 2 2 2 3 4 8 9 10 11 11 12 12 13
6 6 5 5 5 5 3 3 3 3 3 3 3 3 3 2 2 2 2 2 2 2 2 2 1 2 2 3 3 3 3 3 3 2 4 8 9 10 12 12 11 11 12
5 5 5 5 5 5 3 3 3 3 3 3 2 3 3 3 3 3 2 2 2 2 2 2 2 2 3 3 3 4 4 4 4 4 3 8 9 9 11 11 11 12 12
5 5 5 5 6 5 4 4 3 3 3 3 3 3 4 3 3 3 3 2 3 3 3 3 3 3 2 2 3 4 4 4 4 4 4 5 8 8 9 10 11 11 12
7 6 6 6 5 5 5 5 3 3 3 3 3 3 3 3 3 3 3 3 3 2 3 2 2 2 2 2 3 4 3 4 4 4 4 3 4 6 8 9 10 10 11
6 6 6 6 5 5 4 4 3 2 3 2 2 3 4 4 4 3 3 3 2 2 2 2 2 2 2 2 2 3 3 3 4 4 3 3 3 3 5 8 9 10 11
5 5 5 4 4 4 3 2 2 2 2 2 2 2 3 4 4 3 3 2 2 2 2 2 1 2 2 2 3 3 2 3 3 3 3 4 3 3 3 5 8 9 9
4 4 4 4 3 3 2 1 1 1 2 1 2 3 3 3 4 3 2 2 2 2 2 1 2 2 2 2 2 2 2 3 2 3 3 3 2 3 3 3 3 5 8
3 3 4 4 3 3 3 2 2 2 2 1 2 2 3 3 3 3 2 2 2 2 2 2 1 2 1 1 0 1 2 2 2 2 2 2 2 2 2 2 2 2 3
3 3 3 3 3 2 2 2 2 1 1 2 1 2 2 3 3 3 3 2 2 1 1 1 1 1 1 1 1 0 2 2 2 2 2 2 2 2 2 2 2 2 3
3 4 4 3 3 3 2 1 1 1 0 0 1 1 2 2 2 1 3 2 1 1 2 2 2 2 1 1 1 2 2 2 2 2 2 2 2 2 2 2 3 3 3
3 3 3 3 2 2 2 2 3 2 3 3 2 1 1 1 2 2 2 2 1 1 1 2 2 2 2 2 1 1 2 2 1 2 2 2 2 3 3 3 3 3 3
2 2 2 2 2 2 2 3 3 3 3 1 1 1 1 1 2 2 2 2 1 1 1 1 1 2 2 2 2 1 1 1 2 2 3 2 2 3 3 4 3 3 3
1 1 1 1 1 2 2 3 3 3 2 1 1 1 1 1 1 1 2 1 1 1 1 1 1 2 2 2 2 2 2 2 2 2 3 3 3 3 3 3 3 3 2
Wind_Direction
155 156 155 151 145 139 135 130 126 122 120 120 122 125 130 134 137 140 140 140 139 137 134 130 126 122 119 118 119 122 125 128 131 134 139 142 143 142 140 138 135 135 136
148 153 155 152 147 143 139 135 131 128 126 125 126 128 131 135 138 140 142 142 142 141 138 135 131 128 125 125 125 129 132 134 138 142 145 147 150 151 150 146 145 147 143
143 151 154 154 150 146 143 139 136 133 131 130 130 132 134 137 139 141 143 145 145 144 141 139 137 134 131 131 133 135 137 140 145 147 140 136 156 161 161 155 155 154 151
144 148 154 156 152 148 146 143 141 139 137 136 136 137 138 140 142 144 145 147 148 148 146 145 143 140 137 138 140 142 145 150 153 150 135 153 173 171 169 164 162 162 159
141 147 158 157 154 151 149 148 146 144 143 142 142 142 142 144 146 149 151 152 153 154 153 151 149 148 147 146 146 150 157 167 165 156 158 175 189 184 176 171 170 168 165
142 148 161 159 157 155 153 152 152 150 149 149 149 149 149 150 152 155 158 158 158 161 162 160 158 159 160 158 160 168 178 186 172 163 178 190 195 198 188 182 178 175 173
148 151 162 161 160 159 158 158 157 156 155 156 156 156 157 157 159 162 165 167 169 172 172 170 170 173 174 174 181 189 198 203 183 187 196 203 207 207 200 193 186 182 182
152 154 160 166 165 165 164 163 162 162 162 163 164 164 165 166 168 171 173 176 179 181 183 184 185 189 190 196 207 219 221 218 202 200 202 204 212 214 207 200 193 188 188
149 154 160 167 170 170 169 168 167 167 167 169 170 172 173 175 179 182 185 189 191 194 196 199 199 204 210 216 223 229 229 227 199 202 212 205 214 216 214 206 198 194 195
149 160 161 161 163 167 171 173 172 173 174 177 177 179 182 184 188 192 194 200 205 208 212 217 220 220 222 226 234 241 238 237 225 225 228 221 220 221 221 214 205 201 200
165 171 167 163 163 165 170 179 178 180 182 182 184 186 187 188 190 201 206 209 216 220 224 228 231 231 235 244 249 251 251 231 231 237 237 237 229 227 225 220 213 208 204
180 182 178 175 170 167 179 175 171 178 178 178 174 183 178 172 193 207 224 223 227 230 232 235 236 241 243 245 259 259 252 241 238 242 246 244 237 234 231 225 218 215 211
179 179 179 176 173 174 179 168 165 167 168 174 180 179 168 169 194 216 218 243 244 239 236 243 245 233 224 226 239 240 241 241 240 247 252 249 243 242 240 232 223 219 215
169 178 171 172 177 180 178 176 173 175 178 182 187 181 175 190 212 222 220 222 222 227 218 217 219 228 227 230 235 243 242 235 239 244 255 256 250 248 245 238 228 222 218
171 173 174 176 183 183 179 187 186 188 190 182 187 191 189 197 215 225 234 225 222 215 210 214 222 228 235 235 238 241 244 243 242 242 255 257 254 252 247 242 233 228 224
180 179 173 177 189 182 180 183 188 192 195 180 196 198 199 203 210 212 219 221 222 219 210 207 216 223 235 239 249 247 246 248 248 245 245 259 259 258 253 249 242 236 231
180 178 182 186 185 185 184 183 182 189 188 194 201 201 203 207 209 207 206 217 223 216 209 201 209 210 228 234 246 250 249 249 254 252 249 250 260 264 258 253 247 242 237
173 179 188 193 188 192 193 185 182 188 190 201 201 196 199 200 202 202 202 214 215 195 197 195 194 204 220 229 246 256 256 256 255 253 252 252 253 260 259 254 249 243 240
177 177 181 189 187 187 187 187 175 173 185 199 203 204 205 200 202 194 199 204 190 184 190 204 192 198 218 233 245 251 259 260 259 261 261 257 251 251 254 255 251 245 243
165 165 174 175 173 162 161 161 176 176 201 193 208 218 214 207 202 192 194 197 178 175 184 188 203 196 206 222 255 272 275 270 264 260 265 270 267 260 253 255 254 251 246
143 157 170 171 173 161 165 180 198 210 218 221 220 217 208 207 195 183 187 184 179 185 192 181 192 197 201 163 143 308 306 290 278 270 275 274 281 281 274 265 253 250 254
166 174 168 180 180 174 186 184 183 187 222 222 243 236 214 205 193 178 162 170 174 167 164 171 159 164 203 156 154 137 313 322 319 301 295 272 283 294 294 287 272 257 248
186 183 179 185 186 187 188 149 113 81 31 273 244 241 229 192 163 139 141 147 145 155 189 198 189 178 206 200 179 167 185 240 295 299 285 284 293 289 294 291 274 266 253
197 182 170 171 176 189 172 171 173 193 217 225 218 212 197 163 137 120 120 109 111 164 187 201 186 183 182 208 216 203 207 197 210 287 298 290 294 285 284 286 277 266 258
187 170 163 159 174 167 162 193 185 204 219 222 200 162 151 139 124 124 126 113 143 195 232 218 194 188 196 203 195 189 201 219 216 220 271 293 298 277 274 273 265 263 258
140 150 148 151 203 191 177 194 194 198 192 185 196 175 170 127 108 108 113 128 176 186 234 244 229 211 213 209 201 191 194 206 210 217 244 273 284 278 277 271 257 261 261